Location: Austin
(30.3000°N, 97.7500°W)
Time: 12:18:01
(UTC-05:00)

UNK - Pass Details

Date: 22 May 2026
Orbit: 653 x 672 km, 98.4° (Epoch: 11 June)

Event Time Altitude Azimuth Distance (km) Brightness Sun altitude
Rises 05:37:48 0° 139° (SE) 2,977 7.2 -11.4°
Reaches altitude 10° 05:40:19 10° 126° (SE) 2,065 6.5 -10.9°
Maximum altitude 05:44:00 25° 71° (ENE) 1,312 6.2 -10.2°
Drops below altitude 10° 05:47:41 10° 16° (NNE) 2,067 7.0 -9.5°
Sets 05:50:12 0° 4° (N) 2,980 7.6 -9.1°
